Cercs-Sant Jordi





Hora UTC 20:40
Temperatura 0.4 ºC
Humitat 68.3 %
Pressió 999.7 hPa
Pluja 0.0 mm
Velocitat vent 1.1 km/h
Direcció vent SSW
Radiació solar 0.1 W/m²

Dades diàries 2021-11-27



Hora UTC (hivern +1h; estiu +2h)
Temperatura (ºC) Humitat (%) Pressió (hPa) Velocitat vent (km/h) Precipitació (mm) Radiació solar (W/m²)
Hora UTC Aire Humitat Pressió Vel. Dir. Vel. Max Dir. Intent. màx 5 min. Rad. Sol.
00:05 1.3 92.2 1001.3 0.6 NW 0.6 NNW 0.0 0.1
00:10 1.1 91.9 1001.2 0.7 WSW 1.4 SE 0.0 0.1
00:15 1.0 92.8 1001.0 0.4 WNW 1.4 WSW 0.0 0.1
00:20 1.1 92.9 1001.0 0.5 NW 1.8 NNW 0.0 0.1
00:25 1.2 92.4 1000.9 0.9 WSW 1.4 N 0.0 0.1
00:30 0.9 92.6 1001.0 0.8 WNW 1.4 WSW 0.0 0.1
00:35 1.0 93.4 1000.9 1.1 NNE 2.1 NNE 0.0 0.1
00:40 1.2 91.7 1000.8 0.7 NNW 1.8 NNE 0.0 0.1
00:45 0.9 91.6 1000.7 0.8 WSW 1.4 SSW 0.0 0.1
00:50 0.8 92.5 1000.6 0.9 NNW 1.8 N 0.0 0.1
00:55 1.0 92.6 1000.5 0.8 NW 1.8 WNW 0.0 0.1
01:00 1.0 92.0 1000.5 0.3 SSW 1.4 S 0.0 0.1
01:05 0.7 92.1 1000.4 0.9 SW 1.4 S 0.0 0.1
01:10 0.5 92.7 1000.4 0.2 W 1.1 W 0.0 0.1
01:15 0.4 93.5 1000.4 0.1 NE 1.1 NE 0.0 0.1
01:20 0.4 93.4 1000.3 0.0 SW 1.1 W 0.0 0.1
01:25 0.3 93.8 1000.3 0.4 WNW 1.4 WNW 0.0 0.1
01:30 0.2 93.9 1000.2 0.5 WNW 1.4 WNW 0.0 0.1
01:35 0.2 94.2 1000.3 0.8 SW 1.4 SW 0.0 0.1
01:40 0.2 94.3 1000.2 0.3 WNW 1.4 WNW 0.0 0.1
01:45 0.2 94.3 1000.2 0.0 NNE 0.0 WNW 0.0 0.1
01:50 0.3 94.6 1000.2 0.0 NNE 0.0 NW 0.0 0.1
01:55 0.3 94.4 1000.1 0.7 NE 1.4 NE 0.0 0.1
02:00 0.5 94.5 1000.1 0.2 SE 1.1 E 0.0 0.1
02:05 0.3 94.0 1000.1 0.0 NNE 0.0 SSW 0.0 0.1
02:10 0.3 94.3 1000.0 0.1 S 1.1 SSE 0.0 0.1
02:15 0.4 94.5 1000.0 0.7 SSW 1.4 SSW 0.0 0.1
02:20 0.4 94.5 999.9 0.2 SW 1.4 SW 0.0 0.1
02:25 0.4 94.6 999.8 0.4 SSW 1.4 SW 0.0 0.1
02:30 0.3 94.4 999.8 0.3 S 1.4 S 0.0 0.1
02:35 0.4 94.8 999.7 0.5 NE 1.4 NNE 0.0 0.1
02:40 0.6 94.7 999.6 0.9 NE 1.4 NE 0.0 0.1
02:45 0.5 94.2 999.6 0.7 SSW 1.4 SSW 0.0 0.1
02:50 0.3 94.5 999.5 0.4 SW 1.4 SW 0.0 0.1
02:55 0.4 95.0 999.3 0.0 W 1.1 W 0.0 0.1
03:00 0.5 94.9 999.2 0.1 NE 1.1 NE 0.0 0.1
03:05 0.6 94.5 999.2 0.6 NE 1.4 NE 0.0 0.1
03:10 0.7 94.2 999.2 0.7 NNE 1.8 NE 0.0 0.1
03:15 0.7 93.3 999.1 1.1 N 1.8 N 0.0 0.1
03:20 0.8 92.2 999.0 1.1 NNE 1.8 N 0.0 0.1
03:25 0.9 91.6 998.9 1.1 NNE 1.8 NNE 0.0 0.1
03:30 0.9 91.6 998.8 0.2 NNE 1.4 ENE 0.0 0.1
03:35 1.0 91.6 998.7 0.0 NE 1.1 NE 0.0 0.1
03:40 1.0 91.9 998.8 0.1 WSW 1.1 WSW 0.0 0.1
03:45 1.0 92.4 998.8 0.0 WSW 1.1 WSW 0.0 0.1
03:50 1.0 92.6 998.9 0.0 NNE 0.0 WSW 0.0 0.1
03:55 1.1 92.8 998.8 0.0 SSE 1.1 SSE 0.0 0.1
04:00 1.1 92.8 998.7 0.0 NNE 0.0 S 0.0 0.1
04:05 1.1 92.5 998.6 0.0 NNE 0.0 S 0.0 0.1
04:10 1.1 92.2 998.5 0.1 WNW 1.4 NW 0.0 0.1
04:15 1.1 91.6 998.4 0.5 NE 1.4 ENE 0.0 0.1
04:20 1.0 91.9 998.3 1.2 NE 1.8 NE 0.0 0.2
04:25 0.9 92.5 998.3 1.0 NNE 1.4 NNE 0.0 0.1
04:30 1.1 92.3 998.2 0.2 NNE 1.4 NNE 0.0 0.1
04:35 1.2 92.4 998.1 0.0 NNE 0.0 W 0.0 0.1
04:40 1.1 92.6 998.1 0.0 NNE 0.0 WSW 0.0 0.1
04:45 1.1 92.8 998.1 0.0 NNE 0.0 WSW 0.0 0.1
04:50 1.1 92.5 998.1 0.0 NNE 0.0 ESE 0.0 0.1
04:55 1.1 92.4 998.1 0.0 NNE 0.0 E 0.0 0.1
05:00 1.1 92.4 998.0 0.0 NNE 0.0 SSW 0.0 0.1
05:05 1.1 92.7 997.9 0.4 SSW 1.4 SSW 0.0 0.1
05:10 1.1 92.1 998.0 0.4 W 1.4 WNW 0.0 0.1
05:15 1.1 91.2 997.9 0.2 W 1.4 W 0.0 0.1
05:20 1.1 90.9 997.8 0.0 NNE 0.0 W 0.0 0.1
05:25 1.1 90.4 997.8 0.5 NNW 1.8 NW 0.0 0.1
05:30 1.0 90.8 997.7 0.4 NNE 1.4 N 0.0 0.1
05:35 1.1 91.0 997.7 0.0 NE 1.1 NE 0.0 0.1
05:40 1.1 90.3 997.7 0.5 NNW 1.4 N 0.0 0.1
05:45 1.0 89.9 997.7 0.2 N 1.4 NW 0.0 0.1
05:50 1.0 89.7 997.7 1.1 NW 1.8 N 0.0 0.1
05:55 1.0 89.5 997.6 0.5 WNW 1.4 WNW 0.0 0.1
06:00 1.0 90.0 997.6 0.4 W 1.4 WNW 0.0 0.1
06:05 1.0 89.8 997.5 0.5 WSW 1.8 W 0.0 0.2
06:10 1.0 89.8 997.4 0.4 W 1.4 W 0.0 0.1
06:15 1.0 89.8 997.4 0.2 WSW 1.1 SSW 0.0 0.1
06:20 1.0 89.8 997.4 0.1 E 1.4 ENE 0.0 0.1
06:25 1.0 90.6 997.4 0.0 NNE 0.0 ENE 0.0 0.1
06:30 1.1 90.9 997.4 0.1 SSE 1.1 S 0.0 0.1
06:35 1.0 90.5 997.4 0.3 ENE 1.4 ENE 0.0 0.2
06:40 0.9 90.2 997.3 0.9 NE 1.8 ENE 0.0 0.2
06:45 0.8 90.5 997.3 1.0 NE 1.8 N 0.0 0.4
06:50 0.8 90.5 997.4 0.4 NW 1.4 N 0.0 0.7
06:55 0.8 90.5 997.4 1.2 NW 1.8 W 0.0 1.1
07:00 0.7 90.1 997.4 0.9 NW 2.1 WNW 0.0 2.0
07:05 0.6 90.4 997.3 1.3 NNW 2.1 NW 0.0 3.4
07:10 0.5 90.5 997.3 1.2 NNW 1.8 NNW 0.0 5.6
07:15 0.5 90.5 997.3 0.6 NNE 1.4 ENE 0.0 6.9
07:20 0.5 89.9 997.2 1.0 NNE 2.1 NNE 0.0 10.9
07:25 0.5 90.2 997.3 1.4 NNE 2.1 NNE 0.0 13.7
07:30 0.3 90.3 997.4 1.3 NNE 2.1 NNE 0.0 20.0
07:35 0.2 90.2 997.5 1.5 NNE 2.5 ENE 0.0 22.2
07:40 0.1 90.6 997.4 1.5 NNE 2.5 NE 0.0 30.6
07:45 0.1 90.6 997.4 1.5 NNE 2.1 NNE 0.0 49.4
07:50 0.1 90.6 997.4 1.3 NNE 2.1 N 0.0 70.0
07:55 0.2 90.1 997.5 1.6 NNE 2.5 NNE 0.0 70.1
08:00 0.2 89.9 997.6 1.5 NNE 2.1 NNE 0.0 72.8
08:05 0.2 89.6 997.6 1.6 NNE 2.1 NNE 0.0 80.0
08:10 0.2 89.6 997.5 1.5 NNE 2.5 NE 0.0 95.1
08:15 0.3 88.9 997.4 1.1 N 2.1 NE 0.0 117.6
08:20 0.5 88.4 997.3 1.0 NNE 2.1 N 0.0 192.8
08:25 0.7 87.4 997.3 0.9 NE 1.8 NE 0.0 199.1
08:30 0.7 87.1 997.3 1.2 ENE 1.8 ENE 0.0 161.2
08:35 0.8 86.8 997.3 1.1 ENE 1.8 E 0.0 100.9
08:40 0.8 87.5 997.4 1.0 ENE 1.8 ENE 0.0 100.9
08:45 0.8 87.5 997.4 1.2 NE 1.8 NNE 0.0 83.0
08:50 0.8 87.9 997.3 0.5 N 1.4 NE 0.0 96.8
08:55 0.9 87.7 997.4 0.7 N 1.4 NW 0.0 108.8
09:00 1.1 87.2 997.4 0.5 NNE 1.4 SSW 0.0 129.7
09:05 1.2 86.8 997.2 0.9 NNE 1.8 NE 0.0 149.8
09:10 1.4 86.5 997.2 0.8 NE 2.1 NE 0.0 242.5
09:15 1.4 85.9 997.2 1.2 NE 1.8 NNE 0.0 168.3
09:20 1.4 85.5 997.2 0.1 ENE 1.4 NE 0.0 123.6
09:25 1.8 86.1 997.3 1.0 SSW 1.8 S 0.0 179.7
09:30 2.2 84.1 997.4 1.2 WSW 1.8 S 0.0 188.6
09:35 2.2 82.5 997.4 0.5 NNW 1.4 WNW 0.0 113.3
09:40 2.2 82.9 997.5 0.4 N 1.4 ENE 0.0 173.0
09:45 2.3 83.7 997.4 1.0 WNW 1.4 WSW 0.0 133.6
09:50 2.4 83.2 997.4 0.5 N 1.4 NNE 0.0 156.1
09:55 2.5 83.2 997.4 0.9 SW 1.4 WNW 0.0 224.5
10:00 3.1 82.0 997.4 1.3 SW 1.8 SW 0.0 367.2
10:05 3.7 78.7 997.3 1.2 S 1.8 S 0.0 364.8
10:10 4.3 76.3 997.3 0.9 S 1.8 SSW 0.0 345.9
10:15 4.8 74.0 997.3 0.9 S 1.8 S 0.0 348.9
10:20 4.8 74.6 997.3 0.5 SE 1.8 SSW 0.0 235.4
10:25 5.0 73.4 997.3 0.3 SSE 1.4 SSW 0.0 392.7
10:30 5.4 72.8 997.3 0.8 S 1.4 SSE 0.0 370.1
10:35 5.4 72.5 997.2 0.9 SW 1.8 W 0.0 271.1
10:40 5.0 74.0 997.1 0.9 SSW 2.1 WSW 0.0 263.2
10:45 4.8 74.7 997.0 1.2 WSW 1.8 SW 0.0 253.2
10:50 4.8 74.6 997.1 1.2 W 1.8 WSW 0.0 264.2
10:55 4.7 75.4 997.1 0.7 WSW 1.4 W 0.0 263.0
11:00 5.0 74.7 997.1 0.7 SSW 1.4 WSW 0.0 248.6
11:05 5.2 73.8 997.1 0.7 SSW 1.4 SSE 0.0 268.2
11:10 5.3 73.4 997.0 0.4 SSW 1.4 SW 0.0 285.5
11:15 5.4 73.3 997.0 0.4 NNW 1.4 NW 0.0 349.4
11:20 5.2 73.7 997.1 1.3 NE 2.1 NE 0.0 296.5
11:25 5.2 74.6 997.1 1.4 NNE 2.1 NNW 0.0 296.6
11:30 5.1 74.9 997.2 1.3 NE 2.1 NNE 0.0 277.3
11:35 5.3 74.1 997.2 1.7 NE 3.2 NE 0.0 306.3
11:40 5.3 72.9 997.2 2.3 NNE 4.2 NE 0.0 510.5
11:45 5.5 73.4 997.1 2.4 NNE 4.6 NNE 0.0 280.1
11:50 5.3 75.3 996.9 2.6 NNE 4.2 N 0.0 361.1
11:55 5.0 76.1 996.6 2.6 NNE 4.2 NE 0.0 351.7
12:00 5.0 76.0 996.5 2.6 NNE 3.9 NNE 0.0 164.5
12:05 4.9 76.3 996.4 2.4 N 3.9 NNE 0.0 106.0
12:10 5.0 75.0 996.6 1.9 N 4.2 ENE 0.0 105.2
12:15 5.2 73.6 996.7 1.3 NNE 2.5 NNW 0.0 102.5
12:20 5.3 73.2 996.7 1.8 NNE 2.8 NE 0.0 100.5
12:25 5.2 74.7 996.8 1.8 NNE 2.8 NE 0.0 106.0
12:30 5.0 75.8 996.8 1.8 NE 2.8 NNE 0.0 120.7
12:35 5.2 74.3 996.8 1.6 NE 2.1 NNE 0.0 157.4
12:40 5.3 73.5 996.8 2.3 NE 3.2 NE 0.0 298.6
12:45 5.4 72.4 996.7 1.5 NNE 2.5 NE 0.0 436.1
12:50 5.8 71.3 996.7 1.5 NNE 2.5 NNE 0.0 411.2
12:55 6.0 69.8 996.6 1.7 NNE 2.5 NNE 0.0 271.5
13:00 6.0 69.8 996.5 1.8 NNE 2.8 NNE 0.0 202.8
13:05 5.9 70.0 996.4 1.7 NNE 3.2 NNE 0.0 170.1
13:10 5.8 70.2 996.3 2.3 NNE 3.5 NNE 0.0 190.3
13:15 6.0 70.4 996.4 1.4 NNE 2.5 NNE 0.0 389.6
13:20 6.5 67.2 996.5 0.9 N 1.8 NNE 0.0 306.0
13:25 7.2 62.9 996.6 0.5 ESE 1.4 ENE 0.0 375.0
13:30 8.0 57.5 996.5 1.0 E 2.1 E 0.0 434.5
13:35 8.2 57.4 996.5 1.1 ESE 1.8 ESE 0.0 404.8
13:40 8.4 55.5 996.5 0.5 NNE 1.4 ESE 0.0 293.9
13:45 8.3 53.8 996.3 1.0 NNW 2.1 NNW 0.0 313.5
13:50 8.2 53.2 996.3 1.0 NNE 1.8 NW 0.0 175.4
13:55 7.9 53.4 996.4 0.6 NE 1.8 NE 0.0 163.6
14:00 8.1 51.5 996.5 0.7 NNW 2.1 WNW 0.0 285.9
14:05 8.2 49.8 996.5 1.2 NE 2.1 ENE 0.0 205.3
14:10 8.1 48.7 996.5 1.5 NE 2.5 NNE 0.0 275.1
14:15 8.1 49.5 996.6 0.7 NNE 2.1 NNE 0.0 253.4
14:20 8.3 49.8 996.7 0.8 NNW 1.8 N 0.0 188.9
14:25 8.3 56.4 996.7 1.2 N 2.5 NE 0.0 212.5
14:30 8.0 53.3 996.8 1.0 ENE 2.1 ENE 0.0 222.6
14:35 8.2 54.5 996.9 0.3 WNW 1.4 NE 0.0 229.8
14:40 8.2 56.1 996.9 0.6 NW 1.4 WNW 0.0 218.4
14:45 8.3 58.0 996.9 0.8 NNE 1.4 E 0.0 210.2
14:50 8.2 58.9 997.0 1.2 WNW 1.4 WNW 0.0 199.3
14:55 8.0 58.7 997.1 0.7 NW 1.4 NW 0.0 163.4
15:00 8.0 60.2 997.1 0.2 SE 1.4 SSE 0.0 158.8
15:05 7.4 63.0 997.1 1.2 SSW 1.8 SSW 0.0 161.7
15:10 7.1 63.7 997.2 1.2 SSW 1.8 SW 0.0 133.3
15:15 7.0 64.4 997.2 0.9 N 1.8 NNE 0.0 123.4
15:20 6.6 66.0 997.3 1.2 SW 1.8 S 0.0 48.6
15:25 5.5 70.2 997.4 1.2 SW 1.8 SW 0.0 19.9
15:30 4.9 72.6 997.6 1.1 WSW 1.8 SW 0.0 18.2
15:35 4.7 73.3 997.6 0.4 S 1.4 S 0.0 17.0
15:40 4.6 73.5 997.6 0.1 S 1.1 S 0.0 15.5
15:45 4.5 74.5 997.5 0.6 SW 1.4 SW 0.0 14.1
15:50 4.1 76.8 997.6 1.2 SW 1.8 SW 0.0 12.8
15:55 4.0 78.2 997.7 1.0 SW 1.4 SW 0.0 11.5
16:00 3.8 78.9 997.7 0.9 SSW 1.4 S 0.0 10.2
16:05 3.7 78.3 997.7 0.8 SSW 1.4 SSW 0.0 8.8
16:10 3.6 77.3 997.7 1.0 SSW 1.4 SSW 0.0 7.5
16:15 3.6 75.2 997.8 0.4 SW 1.4 S 0.0 6.0
16:20 3.5 75.8 997.8 0.3 SSW 1.1 SW 0.0 4.2
16:25 3.4 74.8 997.9 0.6 SSW 1.4 S 0.0 2.9
16:30 3.3 73.0 997.9 0.3 SSW 1.4 SSW 0.0 1.9
16:35 3.3 73.8 998.1 0.4 WSW 1.4 WSW 0.0 1.0
16:40 3.1 76.1 998.2 0.6 WNW 1.8 W 0.0 0.5
16:45 3.1 68.6 998.3 1.3 SW 1.8 W 0.0 0.2
16:50 2.9 70.3 998.4 1.2 WSW 1.8 W 0.0 0.1
16:55 2.6 72.7 998.3 0.8 WSW 1.4 SSW 0.0 0.1
17:00 2.4 73.0 998.3 0.8 SSW 1.4 S 0.0 0.1
17:05 2.3 72.1 998.4 0.8 WSW 1.4 WSW 0.0 0.1
17:10 2.5 72.0 998.5 1.0 NE 1.8 NNE 0.0 0.1
17:15 2.4 70.5 998.5 0.9 SW 1.8 SSW 0.0 0.1
17:20 2.1 73.2 998.6 0.4 W 1.1 W 0.0 0.1
17:25 2.0 73.4 998.6 0.2 NE 1.4 NNE 0.0 0.1
17:30 2.3 72.6 998.7 1.0 NNE 1.8 NNE 0.0 0.1
17:35 2.2 73.0 998.7 0.9 SW 1.4 ENE 0.0 0.1
17:40 1.9 73.1 998.8 0.5 N 1.4 N 0.0 0.1
17:45 2.1 70.3 998.8 0.2 WSW 1.4 WSW 0.0 0.1
17:50 1.9 70.2 998.9 0.6 S 1.4 SE 0.0 0.1
17:55 1.9 67.2 998.8 1.1 WNW 1.4 SSW 0.0 0.1
18:00 2.2 64.6 998.8 0.6 N 1.8 NE 0.0 0.1
18:05 2.0 66.7 998.9 0.3 NNE 1.4 NNE 0.0 0.1
18:10 1.8 67.3 999.0 0.6 S 1.4 SSW 0.0 0.1
18:15 1.6 66.0 999.1 0.0 S 1.1 S 0.0 0.1
18:20 1.6 66.4 999.2 0.6 NE 1.4 NNE 0.0 0.1
18:25 1.4 67.9 999.1 0.9 SW 1.4 S 0.0 0.1
18:30 1.4 67.9 999.2 1.0 NNW 1.8 WNW 0.0 0.1
18:35 1.3 67.1 999.1 1.0 SW 1.8 WNW 0.0 0.1
18:40 1.2 66.5 999.1 0.6 NE 1.4 NE 0.0 0.1
18:45 1.5 66.8 999.2 0.3 N 1.1 NNE 0.0 0.1
18:50 1.3 67.5 999.3 0.7 SSW 1.4 SSW 0.0 0.1
18:55 1.0 67.5 999.3 1.1 WSW 1.4 SW 0.0 0.1
19:00 1.3 65.1 999.3 0.9 NE 2.1 ENE 0.0 0.1
19:05 1.3 64.5 999.4 0.8 NNE 1.8 N 0.0 0.1
19:10 1.2 65.1 999.3 0.9 SSW 1.8 SW 0.0 0.1
19:15 1.0 67.2 999.4 0.5 N 1.8 SSW 0.0 0.1
19:20 0.9 67.8 999.3 1.3 SSW 2.1 SSW 0.0 0.1
19:25 1.2 64.8 999.4 0.2 NNE 1.8 NE 0.0 0.1
19:30 1.1 65.6 999.4 0.2 SSW 1.4 SSE 0.0 0.1
19:35 1.0 65.6 999.5 0.6 N 1.4 NW 0.0 0.1
19:40 1.1 65.0 999.5 1.1 NNE 1.8 E 0.0 0.1
19:45 0.7 66.5 999.5 0.8 WSW 1.4 W 0.0 0.1
19:50 0.7 64.7 999.6 0.8 WSW 1.4 SW 0.0 0.1
19:55 1.3 58.8 999.5 0.5 W 1.8 NNW 0.0 0.1
20:00 1.5 57.4 999.5 0.7 ENE 1.8 NW 0.0 0.1
20:05 1.7 55.4 999.5 1.3 NNW 2.5 NW 0.0 0.1
20:10 2.7 49.8 999.4 1.3 NNE 2.8 NNE 0.0 0.1
20:15 2.4 53.7 999.5 0.7 NNW 2.1 NE 0.0 0.1
20:20 1.9 56.3 999.5 0.5 WSW 1.8 WNW 0.0 0.1
20:25 1.7 57.4 999.6 0.6 SSE 1.8 ENE 0.0 0.1
20:30 1.2 62.4 999.6 0.9 S 1.8 ENE 0.0 0.1
20:35 0.6 67.3 999.6 1.0 SW 1.8 WNW 0.0 0.1
20:40 0.4 68.3 999.7 1.1 SSW 1.8 WSW 0.0 0.1
Màxima 8.6 95.0 1001.3 2.6 NNE 4.6 NNE 0.0 510.5
Mínima 0.0 48.7 996.3
Total 0.0